Theta_e
350 347 345 347 344 342 342 341 342 342 344 343 340 340 341 339 338 340 335 336 336 331
345 343 341 342 342 337 338 335 335 335 335 335 334 335 336 333 336 334 335 336 336 331
339 338 337 337 334 334 334 333 332 331 330 330 331 331 332 331 333 332 329 327 332 331
331 331 330 329 329 328 328 327 325 324 324 324 325 326 326 326 325 324 327 328 325 326
324 324 323 321 322 322 322 321 320 319 319 319 319 321 320 319 319 318 318 319 321 320
319 318 318 317 317 317 315 316 315 315 314 314 315 316 317 317 316 317 318 318 318 319
317 317 316 316 315 314 314 313 313 314 314 315 316 316 316 315 313 313 315 316 318 318
316 316 315 315 315 315 316 316 316 316 316 316 316 309 309 310 310 311 312 314 315 318
312 312 311 313 314 315 315 315 316 315 315 314 312 302 302 304 306 309 310 312 314 315
311 311 312 313 313 312 312 313 312 312 312 310 309 300 299 299 305 309 312 313 314 314
310 310 311 310 309 309 309 308 308 309 310 309 305 298 296 297 308 309 310 310 310 310
309 309 309 308 308 308 308 306 304 306 307 306 307 297 296 297 301 301 304 308 311 311
309 308 307 307 306 306 306 305 304 303 305 304 303 297 295 295 300 304 306 308 311 304
308 307 306 305 304 303 301 302 302 302 304 304 302 299 294 294 299 300 302 306 306 306
Wind_Speed
13 8 6 8 7 7 5 5 7 4 2 2 2 3 3 6 5 6 5 9 8 9
10 10 10 10 8 7 7 7 5 5 5 5 5 5 7 6 6 6 7 8 8 9
12 12 10 9 9 9 8 7 6 5 4 4 4 5 7 8 8 8 7 9 9 9
12 12 11 9 8 8 6 5 5 5 4 5 5 6 7 9 11 12 10 11 12 13
12 11 11 9 8 7 6 4 5 4 4 5 7 8 9 11 12 13 14 14 14 15
11 11 9 8 6 6 5 5 5 5 6 6 8 9 10 11 12 13 14 15 16 16
11 9 7 6 4 4 2 4 4 5 7 7 9 10 11 11 13 15 15 16 16 16
9 8 7 7 6 5 6 8 9 9 8 8 9 11 11 12 14 15 15 16 15 14
8 8 7 6 6 7 9 9 9 9 10 11 9 10 12 13 14 15 15 13 15 16
9 10 10 9 10 10 10 9 8 7 8 8 7 10 11 13 13 14 13 15 13 13
11 11 11 10 10 9 8 8 8 8 9 8 7 10 11 18 13 13 13 14 14 13
11 10 10 10 10 10 9 9 9 8 9 8 6 12 16 16 13 12 13 12 12 11
10 11 10 10 10 9 9 9 8 8 8 8 10 10 14 15 10 12 11 12 12 5
10 10 10 9 8 9 11 10 10 10 8 7 8 9 13 19 12 10 11 10 11 11
Wind_Direction
153 135 115 73 96 81 93 60 45 20 359 328 283 298 315 292 259 313 295 294 297 296
113 100 93 108 118 101 112 121 80 53 34 10 343 345 329 290 308 302 297 291 285 272
109 106 106 99 95 99 102 91 87 57 30 349 335 324 327 307 308 310 296 289 293 290
97 93 89 88 83 82 75 84 100 89 11 341 327 320 314 303 293 287 295 296 290 290
86 81 77 74 71 61 59 53 24 17 33 333 328 323 313 303 307 302 300 298 296 292
84 79 71 68 50 43 40 14 33 339 22 342 331 315 310 304 299 307 307 301 297 297
81 75 74 72 65 52 1 44 3 352 7 348 328 321 318 343 327 313 305 302 296 297
82 71 61 47 27 12 10 17 6 4 355 342 329 33 2 338 323 311 307 305 298 290
83 73 61 38 24 16 17 14 359 358 356 354 341 30 16 354 321 307 303 301 305 308
56 49 38 29 23 15 15 11 355 347 344 7 6 37 20 346 310 300 305 308 313 314
47 43 37 31 26 14 10 358 355 342 345 7 51 44 12 345 323 315 317 320 318 313
48 41 34 25 20 17 4 10 352 355 354 3 17 30 9 347 330 323 311 307 309 313
41 44 37 26 21 11 4 11 358 351 358 22 10 30 1 345 327 327 332 326 326 8
31 60 38 25 21 14 8 5 9 6 352 15 32 5 352 338 336 342 327 329 344 345